Date,TemperatureHighF,TemperatureAvgF,TemperatureLowF,DewpointHighF,DewpointAvgF,DewpointLowF,HumidityHigh,HumidityAvg,HumidityLow,PressureMaxIn,PressureMinIn,WindSpeedMaxMPH,WindSpeedAvgMPH,GustSpeedMaxMPH,PrecipitationSumIn
2013-1-1,62.4,54.2,46.7,60.1,51.6,43.6,98,91,84,30.09,29.88,7,2,13,1.12
2013-1-2,46.9,43.7,40.1,44.1,38.3,34.6,90,81,73,30.27,30.09,8,3,12,0.08
2013-1-3,54.8,43.2,36.1,34.9,28.9,24.5,81,59,39,30.42,30.21,8,3,11,0.00
2013-1-4,59.3,49.3,34.5,34.4,27.3,22.8,63,43,34,30.44,30.30,6,2,10,0.00
2013-1-5,52.8,46.4,42.6,39.2,30.5,24.6,78,55,44,30.39,30.21,5,2,10,0.00
2013-1-6,50.0,45.0,40.6,45.7,40.8,35.8,93,85,75,30.30,30.18,7,2,10,0.83
2013-1-7,60.9,47.7,35.9,39.2,34.2,30.9,86,62,38,30.33,30.15,6,2,9,0.00
2013-1-8,57.5,52.1,46.9,57.0,46.4,33.5,98,82,54,30.21,30.06,5,2,10,3.36
2013-1-9,61.5,59.2,56.8,60.9,58.7,56.2,98,98,98,30.18,30.06,6,2,12,2.49
2013-1-10,63.6,62.0,59.7,63.1,61.4,59.1,98,98,98,30.15,29.94,7,2,14,1.57
2013-1-11,67.1,63.7,60.2,65.8,62.8,59.7,98,97,93,30.12,29.97,3,1,6,0.46
2013-1-12,75.5,68.9,64.2,67.3,63.8,59.1,98,85,60,30.06,29.88,8,2,13,0.00
2013-1-13,72.8,61.3,45.8,67.3,57.8,42.8,94,88,69,30.12,29.80,11,3,20,1.95
2013-1-14,46.7,42.0,37.7,44.9,39.2,33.5,94,90,83,30.18,30.06,9,3,15,1.62
2013-1-15,45.1,41.2,38.4,43.6,38.9,34.6,96,91,86,30.09,29.97,6,2,8,0.70
2013-1-16,38.4,36.6,35.4,34.6,32.7,31.3,89,86,80,30.18,30.00,7,3,12,0.13
2013-1-17,57.3,43.1,35.6,36.6,31.3,27.6,88,66,38,30.44,30.15,7,2,10,0.00
2013-1-18,61.7,45.4,34.7,34.0,30.2,27.9,78,58,33,30.53,30.36,6,2,10,0.00
2013-1-19,64.0,49.2,36.3,43.9,36.3,28.5,79,63,43,30.39,30.21,5,1,7,0.00
2013-1-20,69.6,51.5,38.4,44.3,35.8,31.4,87,58,30,30.27,30.12,5,1,7,0.00
2013-1-21,67.4,52.5,40.4,43.2,37.3,33.1,78,58,37,30.24,30.12,6,1,10,0.00
2013-1-22,65.4,51.4,43.1,39.5,34.9,29.5,72,55,36,30.36,30.18,4,1,7,0.00
2013-1-23,70.3,54.5,41.0,45.8,39.1,33.6,83,59,33,30.42,30.27,6,1,8,0.00
2013-1-24,71.7,58.5,46.9,53.8,47.8,40.7,91,69,48,30.36,30.18,5,1,8,0.00
2013-1-25,73.7,57.5,51.8,53.1,49.7,46.1,89,77,44,30.27,30.12,7,2,12,0.00
2013-1-26,72.5,60.8,53.9,61.9,52.4,48.9,95,76,47,30.27,30.12,4,1,7,0.00
2013-1-27,59.5,52.9,50.0,56.7,48.3,45.5,96,84,79,30.27,30.18,3,0,4,0.00
2013-1-28,71.6,59.1,56.1,61.5,55.7,53.1,95,89,66,30.27,30.09,5,1,8,0.00
2013-1-29,76.8,67.8,61.1,65.8,63.2,60.0,98,86,61,30.09,29.74,8,3,19,0.00
2013-1-30,69.4,57.0,43.1,65.4,37.7,23.9,92,51,34,30.21,29.65,9,4,15,0.87
2013-1-31,64.9,48.2,36.5,33.1,27.4,12.3,73,48,15,30.30,30.18,6,1,8,0.00
2013-2-2,62.2,56.3,54.1,44.9,40.2,37.2,71,55,41,30.24,30.18,2,0,4,0.00
2013-2-3,72.5,57.1,46.2,47.2,34.3,-22.7,83,51,2,30.30,30.12,7,1,8,0.00
2013-2-4,53.9,48.0,45.3,50.8,35.4,27.2,92,63,44,30.15,29.97,3,0,4,0.04
2013-2-5,72.3,56.0,52.5,60.3,52.9,49.9,97,90,57,30.06,29.94,4,0,6,0.00
2013-2-6,62.2,56.3,50.9,58.9,52.8,47.6,98,88,78,30.12,29.94,6,1,11,0.25
2013-2-7,68.5,58.1,53.2,59.3,54.2,49.9,98,88,62,29.97,29.83,7,1,13,1.08
2013-2-8,70.3,57.3,52.3,59.3,51.1,44.2,98,81,57,30.18,29.94,8,2,13,0.00
2013-2-9,53.0,52.5,51.8,45.0,44.3,43.7,74,74,73,30.18,30.12,4,2,8,0.00
2013-2-10,66.0,66.0,66.0,63.3,63.3,63.3,91,91,91,30.00,30.00,3,3,6,0.00
2013-2-11,65.8,60.1,52.5,64.3,57.9,49.9,98,93,79,30.15,29.94,11,2,15,1.25
2013-2-12,63.1,56.0,51.9,62.5,55.0,49.6,98,97,88,30.06,29.71,7,2,13,0.41
2013-2-13,59.9,50.0,0.0,49.9,40.8,33.5,89,71,47,30.12,29.88,9,2,14,0.00
2013-2-14,64.7,49.4,37.0,39.4,34.2,30.8,85,59,34,30.15,30.06,5,1,8,0.00
2013-2-15,68.9,52.6,38.3,41.1,34.0,29.5,77,52,32,30.21,30.06,7,2,11,0.00
2013-2-16,59.0,48.1,39.2,31.9,20.7,-13.5,53,37,6,30.33,30.18,12,3,15,0.00
2013-2-17,63.5,47.6,33.6,33.8,26.3,16.9,56,44,32,30.36,30.18,6,2,10,0.00
2013-2-18,62.4,53.6,42.8,58.6,45.6,30.1,95,75,56,30.21,29.94,7,2,15,0.29
2013-2-19,68.3,57.2,46.7,58.6,38.1,15.8,97,55,21,30.27,29.94,9,3,17,1.75
2013-2-20,61.5,49.5,40.8,33.5,25.5,20.0,53,40,26,30.27,30.00,7,2,12,0.00
2013-2-21,67.1,58.1,48.3,64.9,50.2,31.5,98,76,52,30.03,29.74,9,3,18,0.16
2013-2-22,66.0,61.2,54.3,64.3,46.4,40.5,96,60,44,30.00,29.83,6,2,10,0.38
2013-2-23,61.1,53.1,50.3,50.0,48.3,43.0,90,84,63,30.00,29.88,6,2,7,0.04
2013-2-24,70.8,56.0,43.7,55.6,47.0,38.7,97,74,45,29.97,29.74,6,2,9,0.83
2013-2-25,61.7,58.3,52.7,61.1,55.8,33.8,98,92,47,29.77,29.44,7,3,13,1.70
2013-2-26,61.5,51.1,42.9,37.7,31.6,25.7,64,47,38,29.94,29.59,9,3,12,0.00
2013-2-27,69.8,56.0,44.7,41.9,36.9,31.8,77,52,26,30.06,29.91,7,2,11,0.00
2013-2-28,53.2,47.2,43.3,31.5,26.5,24.7,53,45,36,30.18,30.06,7,2,10,0.00
2013-3-1,62.9,49.7,39.3,33.4,27.5,22.3,63,44,26,30.18,30.06,7,2,12,0.00
2013-3-2,51.2,40.8,33.6,28.3,21.6,16.7,62,47,38,30.30,30.18,9,2,11,0.00
2013-3-3,61.1,43.6,29.6,31.6,23.2,17.6,65,46,26,30.30,30.12,6,1,9,0.00
2013-3-4,70.3,55.2,38.4,53.1,41.6,27.0,84,62,42,30.12,29.91,9,3,16,0.00
2013-3-5,75.5,62.6,51.9,59.3,46.4,26.4,91,60,29,30.21,29.88,10,3,13,0.00
2013-3-6,68.9,53.1,39.7,31.0,17.5,-17.4,41,28,4,30.36,30.18,8,2,13,0.00
2013-3-7,62.7,44.5,36.6,32.1,24.6,19.9,57,46,36,30.39,30.24,4,1,6,0.00
2013-3-8,71.7,55.2,39.9,43.9,34.5,29.0,73,48,27,30.33,30.12,5,1,8,0.00
2013-3-9,66.0,58.2,49.4,54.7,48.3,38.2,87,70,54,30.15,29.94,5,2,10,0.00
2013-3-10,75.2,64.8,57.0,63.1,56.2,51.0,95,75,49,29.97,29.83,11,3,17,0.04
2013-3-11,64.2,52.5,43.3,51.7,38.7,29.8,87,63,35,30.06,29.88,8,3,11,1.16
2013-3-12,72.3,48.2,39.9,39.5,31.7,29.0,72,55,25,30.24,30.03,6,1,10,0.00
2013-3-13,69.8,51.4,42.8,34.9,30.7,27.7,63,47,22,30.42,30.21,9,2,13,0.00
2013-3-14,72.3,49.6,41.0,34.8,19.9,-16.1,48,33,3,30.48,30.30,5,0,9,0.00
2013-3-15,75.5,59.4,45.1,47.4,38.4,33.6,82,49,24,30.33,30.12,9,2,14,0.00
2013-3-16,76.4,62.3,49.6,53.6,46.2,42.3,87,58,35,30.15,29.94,8,2,12,0.00
2013-3-17,77.3,65.3,55.5,61.8,54.3,48.4,91,70,43,30.00,29.80,7,2,12,0.00
2013-3-18,82.0,71.0,64.9,65.3,61.1,56.0,94,73,43,29.91,29.77,7,2,12,0.00
2013-3-19,80.4,67.8,52.3,59.6,46.8,36.9,69,49,30,30.03,29.88,8,2,12,0.00
2013-3-20,74.4,61.1,51.9,48.6,24.6,-20.9,71,34,2,30.18,30.00,10,3,17,0.00
2013-3-21,67.1,53.6,46.2,37.5,27.4,18.2,52,37,25,30.06,29.83,6,1,10,0.00
2013-3-22,74.1,62.5,53.9,64.5,55.1,37.2,93,77,51,29.91,29.71,5,2,10,0.00
2013-3-23,68.0,64.9,62.7,64.8,62.3,60.0,97,91,87,29.83,29.56,4,1,8,0.00
2013-3-24,71.0,60.3,47.1,64.6,44.8,22.7,97,62,26,30.06,29.62,9,3,13,0.00
2013-3-25,65.1,50.1,37.7,29.0,14.6,-15.5,52,31,4,30.27,30.06,9,3,12,0.00
2013-3-26,63.5,47.1,36.3,25.8,19.3,4.0,45,34,10,30.42,30.27,8,2,11,0.00
2013-3-27,67.6,47.8,34.1,31.7,22.7,-11.8,57,40,4,30.44,30.27,6,1,8,0.00
2013-3-28,71.9,53.1,39.7,38.5,31.7,26.1,67,47,22,30.39,30.24,6,1,8,0.00
2013-3-29,76.4,60.1,45.5,48.9,40.2,32.5,80,50,28,30.33,30.18,6,1,11,0.00
2013-3-30,76.2,62.8,51.9,55.6,49.0,42.4,88,63,37,30.21,30.00,6,2,10,0.00
2013-3-31,75.3,62.4,56.1,61.9,56.9,51.2,97,83,52,30.06,29.88,11,2,15,0.75
2013-4-1,82.0,64.3,53.0,58.8,52.4,45.9,96,69,33,30.12,29.94,7,1,10,0.00
2013-4-2,59.0,57.2,55.7,49.9,49.5,48.8,78,75,72,30.06,30.03,1,0,2,0.00
2013-4-4,57.3,52.4,48.0,48.7,45.7,40.4,89,78,63,30.09,29.94,6,2,10,0.00
2013-4-5,73.2,55.7,46.2,48.5,42.2,38.7,77,63,38,30.21,30.06,7,2,11,0.00
2013-4-6,73.7,59.4,45.5,49.6,44.6,39.5,84,61,37,30.15,30.03,7,1,11,0.00
2013-4-7,76.8,63.7,53.4,57.0,52.0,48.0,89,68,44,30.09,29.94,6,1,9,0.00
2013-4-8,82.4,67.4,56.6,62.4,56.9,53.2,96,72,42,30.00,29.88,8,2,13,0.00
2013-4-9,83.4,73.0,67.2,68.2,65.6,62.3,92,79,55,29.97,29.88,8,3,20,0.00
2013-4-10,80.6,73.6,69.2,68.3,65.9,63.8,88,78,61,29.94,29.83,8,3,13,0.00
2013-4-11,71.7,66.1,53.4,69.0,61.6,45.3,95,86,60,29.88,29.68,8,2,10,0.80
2013-4-12,79.7,61.3,46.7,49.4,43.4,38.1,86,57,29,30.03,29.85,7,1,9,0.00
2013-4-13,78.0,64.3,51.8,51.6,42.1,37.4,69,46,29,30.03,29.85,5,1,10,0.04
2013-4-14,61.7,58.0,55.7,58.2,54.5,51.0,95,88,70,29.88,29.80,6,2,12,1.99
2013-4-18,61.1,61.1,61.1,58.2,58.2,58.2,90,90,90,29.83,29.83,1,1,4,1.99
2013-4-19,66.7,56.1,48.7,41.2,37.2,32.7,71,50,35,30.21,30.06,6,2,10,0.41
2013-4-20,73.9,56.7,42.6,42.0,37.1,33.6,76,51,29,30.27,30.12,7,1,10,0.00
2013-4-21,76.6,60.6,46.5,45.6,41.3,37.6,73,51,31,30.21,30.06,6,1,9,0.00
2013-4-22,80.9,65.0,51.0,59.0,49.3,44.4,85,60,33,30.15,30.00,5,1,8,0.00
2013-4-23,64.4,63.8,63.5,61.0,60.6,59.0,90,89,86,30.03,30.00,4,1,6,0.00
2013-4-24,68.3,65.1,56.6,66.2,61.0,49.5,97,87,71,30.21,29.97,7,1,12,1.75
2013-4-25,77.1,62.0,51.8,54.6,46.1,38.2,82,59,33,30.33,30.18,7,2,10,0.00
2013-4-26,78.4,65.5,55.2,59.7,51.1,39.3,81,60,48,30.30,30.18,5,1,8,0.00
2013-4-27,82.4,71.9,63.1,66.3,59.1,52.2,94,67,40,30.21,30.00,7,2,10,0.00
2013-4-28,77.9,68.5,63.1,68.4,62.4,56.4,95,81,55,30.06,29.91,6,1,13,0.54
2013-4-29,82.4,69.8,57.7,63.3,56.1,51.1,93,66,38,30.00,29.83,5,1,7,0.00
2013-4-30,71.6,66.3,63.5,66.9,62.4,56.5,93,87,71,29.91,29.83,6,0,7,0.25
2013-5-1,79.3,68.0,63.1,68.2,62.7,58.2,97,84,53,29.91,29.80,6,1,8,0.12
2013-5-2,77.0,67.6,63.1,64.6,61.1,59.0,91,80,61,29.97,29.85,5,1,8,0.00
2013-5-3,66.2,56.7,46.4,63.1,48.3,37.2,92,74,55,30.06,29.91,7,2,12,0.00
2013-5-4,73.9,57.1,42.2,43.8,38.7,33.4,84,54,24,30.03,29.85,6,2,12,0.00
2013-5-5,69.2,59.0,50.5,47.3,38.7,34.3,72,48,34,30.06,29.91,7,2,12,0.00
2013-5-6,78.8,62.1,48.0,48.0,43.3,37.3,79,53,33,30.06,29.94,6,1,10,0.00
2013-5-7,85.4,68.8,55.4,56.7,50.5,45.5,85,56,31,30.06,29.94,6,1,9,0.00
2013-5-8,82.9,69.4,57.7,61.0,53.6,50.3,89,61,35,30.09,30.00,6,1,8,0.00
2013-5-9,78.2,73.5,69.2,64.7,60.8,55.4,85,65,46,30.06,30.00,5,2,8,0.00
2013-5-10,69.2,65.6,61.8,66.8,63.2,59.7,97,92,85,30.06,29.88,10,2,14,3.08
2013-5-11,77.1,67.4,60.4,66.2,62.0,58.9,98,84,61,30.09,29.94,7,1,11,0.83
2013-5-12,82.4,69.0,58.4,59.6,54.6,46.2,90,63,39,30.18,30.06,7,2,11,0.00
2013-5-13,82.5,68.5,52.7,47.7,42.9,39.0,67,42,27,30.30,30.18,5,2,8,0.00
2013-5-14,85.1,69.9,56.4,57.4,49.3,44.9,83,51,29,30.27,30.12,5,1,7,0.00
2013-5-15,81.5,69.3,59.1,62.3,54.0,49.1,85,60,39,30.21,30.00,6,1,9,0.00
2013-5-16,66.2,64.6,62.9,56.1,55.5,54.5,78,72,66,30.03,29.97,2,0,3,0.00
2013-5-20,88.1,81.6,74.1,71.0,67.8,63.7,86,64,46,30.00,29.88,7,3,10,0.00
2013-5-21,86.9,78.0,71.2,71.4,67.6,61.7,92,72,47,29.97,29.80,6,2,11,0.00
2013-5-22,79.1,71.5,63.6,68.9,65.9,61.9,96,83,62,30.00,29.85,7,1,8,1.70
2013-5-23,89.9,74.3,64.4,72.9,66.0,58.1,97,78,43,30.09,29.94,4,1,6,1.50
2013-5-24,91.0,76.3,64.0,72.3,65.5,61.3,94,72,45,30.18,30.00,6,1,8,0.00
2013-5-25,83.4,77.0,65.6,64.5,59.2,50.5,71,55,40,30.21,30.12,5,1,8,0.00
2013-5-26,85.2,71.4,66.9,64.6,61.7,55.6,87,73,41,30.18,30.06,4,0,8,0.00
2013-5-27,87.6,75.5,65.6,66.8,61.6,56.3,87,64,40,30.15,30.00,6,2,9,0.00
2013-5-28,84.2,74.5,66.7,68.4,63.9,60.1,90,71,50,30.09,29.94,6,2,10,0.00
2013-5-29,81.3,72.8,68.1,73.9,67.6,61.1,94,84,68,30.03,29.91,6,2,11,0.54
2013-5-30,84.7,75.3,69.9,75.6,70.4,66.6,96,85,58,30.00,29.91,6,2,10,0.58
2013-5-31,85.1,75.8,70.3,73.8,70.4,68.4,96,84,61,30.00,29.94,7,2,11,0.00
2013-6-1,89.7,79.5,70.8,73.1,68.5,62.2,94,71,43,29.97,29.88,6,2,8,0.00
2013-6-2,86.5,76.2,67.2,72.5,68.8,63.1,92,79,57,30.03,29.85,6,1,10,0.13
2013-6-3,91.2,79.2,69.8,73.9,68.5,63.6,93,72,46,29.94,29.83,6,1,8,0.12
2013-6-4,90.3,79.9,71.7,73.0,69.2,63.3,91,71,46,29.94,29.83,4,1,7,0.00
2013-6-5,89.7,79.0,0.0,73.9,70.1,67.2,92,75,49,29.97,29.80,4,1,10,0.00
2013-6-6,91.7,78.7,0.0,73.0,68.2,60.9,90,71,38,29.88,29.71,8,1,13,0.50
2013-6-7,86.1,74.4,67.8,69.6,66.6,60.8,92,78,44,29.91,29.80,5,1,7,0.00
2013-6-8,87.6,77.5,69.0,68.4,65.2,61.2,86,67,43,29.97,29.77,5,1,8,0.00
2013-6-9,88.7,76.6,70.5,71.3,67.1,60.4,96,75,42,29.97,29.88,6,1,8,0.25
2013-6-10,84.7,73.3,71.0,73.9,69.3,67.1,93,88,67,30.03,29.94,5,1,8,0.00
2013-6-11,91.9,81.9,73.7,74.9,70.0,62.9,92,70,41,30.12,30.00,5,1,5,0.00
2013-6-12,94.2,77.9,73.5,74.6,70.5,62.0,90,80,38,30.12,30.03,5,1,8,0.00
2013-6-13,95.1,83.1,73.9,74.7,69.5,65.2,89,66,40,30.06,29.88,5,1,6,0.00
2013-6-14,98.4,84.8,75.2,76.9,70.9,63.1,87,65,42,29.97,29.85,6,2,8,0.00
2013-6-15,96.0,77.2,71.0,73.3,64.2,61.5,73,65,37,30.03,29.91,5,1,6,0.00
2013-6-16,95.3,83.2,75.9,74.4,70.4,65.6,87,67,43,30.06,29.94,6,1,8,0.00
2013-6-17,92.1,82.0,73.5,71.8,67.6,62.1,85,64,39,30.03,29.91,7,2,14,0.00
2013-6-18,92.1,81.4,72.5,70.9,67.0,62.3,86,64,39,30.03,29.88,7,2,11,0.00
2013-6-19,80.2,73.3,70.7,73.3,68.4,64.2,93,85,76,30.06,29.94,3,0,5,1.12
2013-6-20,93.0,79.8,70.5,75.5,69.1,64.9,93,72,42,30.12,30.00,6,1,10,0.00
2013-6-21,92.8,81.0,0.0,73.7,68.0,60.4,88,66,39,30.12,30.03,5,1,6,0.00
2013-6-22,91.7,80.1,72.1,73.2,68.6,63.4,89,69,45,30.09,30.00,5,1,8,0.00
2013-6-23,76.1,75.6,75.2,68.2,67.9,67.4,79,77,75,30.03,30.00,2,1,3,0.00
2013-6-24,87.9,79.5,71.6,72.8,68.9,63.9,91,72,50,30.15,30.03,7,1,8,0.00
2013-6-25,91.4,76.7,72.6,73.0,68.4,59.5,89,77,38,30.12,30.03,5,1,9,0.00
2013-6-26,95.9,82.8,71.9,73.5,67.1,60.3,88,62,36,30.06,29.94,5,1,6,0.00
2013-6-27,95.9,80.0,71.9,75.0,69.5,63.6,86,72,37,30.06,29.91,5,1,8,0.00
2013-6-28,95.1,84.6,76.2,74.9,70.3,64.5,87,65,41,29.97,29.80,6,2,9,0.00
2013-6-29,87.4,79.4,71.2,74.7,71.7,65.6,89,78,62,29.83,29.71,6,2,9,0.08
2013-6-30,94.1,82.2,72.6,72.6,62.6,53.7,89,57,27,29.83,29.71,6,1,9,0.00
2013-7-1,90.5,79.1,69.0,64.0,59.7,56.5,75,53,38,29.94,29.83,6,1,9,0.00
2013-7-2,90.8,78.2,68.7,64.9,60.6,57.4,76,57,36,30.03,29.91,4,1,6,0.00
2013-7-3,89.6,75.5,69.6,69.8,64.3,59.8,85,70,42,30.06,29.94,7,1,11,0.42
2013-7-4,91.0,77.3,68.1,73.2,66.5,60.7,90,72,43,30.00,29.91,6,1,8,0.00
2013-7-5,82.2,76.7,72.3,72.8,68.4,64.9,86,76,67,30.00,29.94,5,2,8,0.00
2013-7-6,87.6,76.1,69.2,72.9,68.7,65.9,91,79,53,30.03,29.94,5,1,8,0.00
2013-7-7,84.5,75.6,71.6,73.2,69.9,64.9,93,83,59,30.09,29.94,6,1,10,0.20
2013-7-8,88.1,75.8,69.9,75.8,70.3,67.1,95,84,51,30.15,30.06,4,1,8,0.42
2013-7-9,92.3,79.3,70.5,76.5,70.7,65.4,95,77,44,30.21,30.06,4,1,6,0.25
2013-7-10,94.1,82.5,73.7,74.4,69.9,62.9,92,68,39,30.12,29.97,6,1,8,0.00
2013-7-11,93.2,80.6,72.8,75.7,71.9,69.1,88,76,51,30.03,29.94,4,1,6,0.37
2013-7-12,96.4,82.7,70.1,75.1,68.5,61.8,93,67,36,29.97,29.83,6,2,10,0.00
2013-7-13,94.2,82.7,77.9,68.7,63.8,60.3,65,54,36,29.97,29.88,5,2,9,0.00
2013-7-14,90.3,75.5,69.2,71.8,66.9,56.3,87,76,43,30.03,29.88,9,1,17,0.71
2013-7-15,85.4,74.5,70.8,72.7,69.5,67.4,94,85,61,30.12,29.97,6,1,10,0.29
2013-7-16,83.4,75.4,69.9,75.3,70.9,67.8,94,86,71,30.18,30.06,6,1,10,0.41
2013-7-17,91.0,79.4,71.6,73.9,69.7,61.4,94,74,47,30.21,30.12,5,1,9,0.00
2013-7-18,81.6,78.8,74.8,73.3,70.8,65.4,88,76,65,30.18,30.00,6,1,10,0.04
2013-7-19,92.6,80.0,70.7,72.6,67.5,61.3,89,68,40,30.09,29.94,5,1,8,0.00
2013-7-20,90.5,77.7,72.5,75.5,69.2,64.6,89,76,45,30.03,29.91,6,1,10,0.42
2013-7-21,80.7,74.9,72.6,72.8,69.9,68.1,91,85,72,30.09,29.97,6,2,8,0.12
2013-7-22,85.6,77.3,72.3,74.8,70.8,61.5,93,81,52,30.06,30.00,8,2,13,0.00
2013-7-23,92.6,78.0,73.9,75.8,71.7,64.6,94,83,42,30.09,29.94,7,1,12,0.00
2013-7-24,91.7,82.2,75.2,74.2,70.1,65.1,88,69,44,30.00,29.88,7,2,11,0.00
2013-7-25,95.3,83.0,73.7,73.1,68.4,63.9,87,63,40,30.06,29.94,6,1,8,0.00
2013-7-26,93.0,81.1,71.0,71.0,66.7,63.0,80,63,41,30.09,29.94,6,1,8,0.00
2013-7-27,80.0,76.1,72.5,76.0,72.4,68.4,93,88,80,29.97,29.83,6,1,11,1.29
2013-7-28,84.2,79.7,72.3,73.1,71.9,69.5,93,78,67,30.03,29.88,5,1,6,0.00
2013-7-29,94.6,86.6,80.7,73.3,71.0,68.0,74,61,42,30.12,30.00,5,1,6,0.00
2013-7-30,95.5,83.2,75.5,74.2,71.0,65.5,87,68,42,30.15,30.06,4,1,6,0.00
2013-7-31,97.5,84.1,75.9,74.4,70.4,66.5,82,65,40,30.12,29.94,5,1,8,1.29
2013-8-1,96.6,84.0,75.7,75.5,69.9,62.1,85,64,38,30.03,29.91,6,1,10,0.00
2013-8-2,96.2,82.6,73.4,75.5,69.0,64.0,80,65,43,30.03,29.94,5,1,8,0.00
2013-8-3,96.9,84.3,74.3,75.5,70.5,64.5,89,66,37,30.09,29.97,4,1,6,0.00
2013-8-4,97.8,88.0,76.4,76.1,70.4,66.9,87,60,39,30.12,29.97,6,1,9,0.00
2013-8-5,95.9,94.6,80.6,71.6,68.9,66.9,74,44,39,30.06,29.94,6,1,8,0.00
2013-8-6,96.6,82.6,77.1,74.4,71.5,63.5,85,72,36,30.03,29.88,7,2,10,0.00
2013-8-7,88.8,85.3,82.0,76.0,73.2,66.2,74,68,53,30.00,29.88,6,1,8,0.00
2013-8-8,95.0,84.7,76.8,75.4,71.4,66.5,85,66,44,30.00,29.88,5,1,7,0.00
2013-8-9,90.8,81.0,76.6,76.4,73.1,70.1,88,77,57,30.03,29.91,6,1,11,0.21
2013-8-10,96.0,82.9,74.1,75.6,69.7,60.5,91,67,33,30.09,29.97,5,1,6,0.00
2013-8-11,86.3,78.3,74.1,73.7,71.3,68.2,88,80,61,30.12,30.06,5,1,10,0.08
2013-8-12,90.6,79.1,72.8,76.3,71.1,68.1,93,78,52,30.12,30.00,5,1,8,0.00
2013-8-13,81.3,75.9,70.8,73.8,69.8,67.8,92,82,68,30.06,29.94,8,1,16,0.75
2013-8-14,76.2,72.5,70.3,73.9,70.4,68.0,94,93,90,30.03,29.94,6,1,8,1.58
2013-8-15,71.4,70.6,69.9,68.3,67.8,67.5,92,91,90,29.97,29.94,3,1,4,0.00
2013-8-16,95.5,80.7,70.7,73.2,67.1,62.0,87,66,38,30.00,29.88,6,1,6,0.00
2013-8-17,90.5,78.2,71.4,71.3,67.1,64.7,84,70,48,30.00,29.91,6,2,12,0.00
2013-8-18,73.5,70.6,69.4,67.3,65.7,65.0,89,85,77,30.00,29.94,5,2,9,0.00
2013-8-19,88.7,78.0,71.2,69.1,66.8,65.1,88,71,48,30.06,29.94,4,1,5,0.00
2013-8-20,87.2,84.5,75.0,70.2,67.1,66.3,85,58,50,30.06,29.97,4,1,6,0.58
2013-8-21,82.7,76.8,75.0,72.8,70.8,70.2,85,82,70,30.12,30.03,3,1,3,0.00
2013-8-22,92.3,82.2,77.0,73.1,70.0,63.3,83,68,41,30.12,29.94,4,1,6,0.00
2013-8-23,91.7,80.7,73.5,74.3,70.1,64.7,88,72,43,30.03,29.94,6,2,12,0.00
2013-8-24,83.3,76.7,71.7,70.7,68.8,66.7,89,77,63,30.09,29.94,6,2,10,0.00
2013-8-25,84.2,76.7,71.2,71.4,68.9,67.1,91,77,59,30.18,30.06,6,2,12,0.04
2013-8-26,86.1,75.2,71.6,73.5,70.4,68.8,92,86,61,30.18,30.09,5,1,8,0.87
2013-8-27,92.4,78.4,68.5,70.8,65.5,58.3,92,68,38,30.15,30.03,5,1,6,0.00
2013-8-28,92.3,78.4,66.7,65.4,61.2,57.2,84,58,36,30.09,30.00,5,1,8,0.00
2013-8-29,93.0,79.5,67.2,67.1,61.9,56.3,85,58,32,30.12,29.97,5,1,6,0.00
2013-8-30,94.1,80.9,70.1,71.2,64.3,58.9,87,59,36,30.06,29.94,6,1,8,0.00
2013-8-31,95.7,81.3,70.3,73.5,66.3,62.0,88,63,35,30.00,29.85,4,1,6,0.00
2013-9-1,94.6,84.5,74.6,74.0,68.6,63.4,87,62,37,29.97,29.83,4,1,7,0.00
2013-9-2,96.8,83.8,75.0,74.5,69.0,63.1,87,64,36,29.97,29.85,5,1,8,0.00
2013-9-3,95.5,81.6,75.0,75.5,70.0,62.8,89,71,38,29.97,29.85,7,1,10,0.50
2013-9-4,95.0,78.4,72.1,75.5,71.3,66.0,91,80,41,30.09,29.94,5,1,10,0.58
2013-9-5,86.9,77.3,71.7,74.6,71.6,69.0,93,83,58,30.12,30.03,4,1,7,0.17
2013-9-6,93.3,79.6,71.4,74.8,69.2,62.6,93,73,43,30.12,29.97,6,1,10,0.00
2013-9-7,94.4,79.1,71.2,75.3,67.1,61.5,87,69,37,30.06,29.97,6,1,9,0.00
2013-9-8,94.1,78.3,70.7,71.8,66.5,62.2,85,69,37,30.06,29.91,5,1,8,0.00
2013-9-9,93.5,80.0,69.4,72.5,66.2,58.2,88,65,34,30.06,29.94,5,1,9,0.00
2013-9-10,91.2,79.0,70.7,73.2,68.3,61.5,88,71,43,30.12,30.00,8,1,11,0.16
2013-9-11,75.7,75.0,74.4,69.1,68.9,68.4,83,81,80,30.09,30.09,3,1,3,0.00
2013-9-15,87.9,80.7,77.1,69.7,66.9,59.2,75,64,38,30.06,29.97,3,1,4,0.00
2013-9-16,94.1,81.2,71.6,74.2,66.5,62.0,86,64,38,30.09,30.00,5,2,10,0.00
2013-9-17,92.8,81.6,72.5,70.0,66.3,59.9,87,64,35,30.09,29.94,5,2,8,0.00
2013-9-18,91.2,78.9,73.2,72.8,68.9,63.1,85,73,46,30.06,29.94,6,2,10,0.00
2013-9-19,75.3,73.5,71.4,69.1,68.4,67.5,89,84,80,30.03,29.94,4,1,6,0.00
2013-9-20,89.9,78.6,73.2,75.1,72.1,67.3,94,81,49,29.97,29.80,6,2,10,0.05
2013-9-21,76.4,72.3,67.6,73.5,69.5,64.6,95,91,83,29.83,29.71,6,2,10,4.23
2013-9-22,79.5,71.1,66.5,65.5,61.9,58.0,92,74,56,29.85,29.74,6,2,10,0.00
2013-9-23,87.4,74.0,64.0,72.5,64.3,54.2,91,72,57,29.85,29.77,4,2,9,0.00
2013-9-24,90.8,79.0,73.7,75.8,71.1,66.3,96,78,51,29.85,29.77,6,2,10,0.04
2013-9-25,93.5,78.3,68.0,72.4,62.6,52.0,92,63,30,29.85,29.77,6,1,9,0.00
2013-9-26,94.1,74.5,64.4,64.8,60.0,57.6,83,64,31,29.97,29.83,5,1,8,0.00
2013-9-27,90.1,76.1,66.2,69.8,63.0,58.6,88,66,37,30.03,29.94,4,1,8,0.00
2013-9-28,89.4,72.8,67.8,67.9,64.1,56.0,88,76,36,30.09,29.94,4,1,8,0.00
2013-9-29,82.4,73.8,67.1,67.0,62.4,57.4,86,69,45,30.06,29.94,4,1,8,0.00
2013-9-30,84.2,72.9,68.9,70.0,66.1,61.5,91,80,57,29.97,29.88,6,1,8,0.00
2013-10-1,83.3,73.0,68.7,73.5,68.8,65.9,93,87,66,30.06,29.94,4,1,8,0.29
2013-10-2,86.0,75.3,69.4,73.0,68.9,65.9,95,82,55,30.06,29.94,5,1,8,0.00
2013-10-3,86.7,76.3,69.8,74.4,69.5,65.4,95,81,51,30.03,29.94,4,1,7,0.00
2013-10-4,84.5,75.8,70.1,75.2,70.2,67.0,94,83,62,30.03,29.94,6,2,11,0.09
2013-10-5,82.2,74.3,71.2,74.7,69.8,67.1,96,86,62,30.06,29.88,5,1,9,0.70
2013-10-6,79.8,70.7,61.3,70.3,63.4,46.0,93,79,51,30.00,29.85,6,1,11,0.00
2013-10-7,82.0,66.6,55.4,52.4,48.3,45.8,74,54,34,30.06,29.97,6,2,12,0.00
2013-10-8,84.0,66.8,55.2,55.2,49.9,46.8,76,57,33,30.09,30.00,6,1,7,0.00
2013-10-9,86.3,68.7,55.4,58.1,51.6,47.7,81,57,30,30.12,30.00,4,1,6,0.04
2013-10-10,86.1,71.0,63.6,67.6,60.0,54.0,92,71,39,30.12,29.97,4,1,6,0.00
2013-10-11,67.1,66.5,65.4,63.4,62.6,61.4,88,87,83,30.03,29.97,3,0,4,0.00
2013-10-12,91.4,75.5,65.8,71.2,65.0,58.9,94,73,36,30.12,29.94,5,1,6,0.21
2013-10-13,90.5,75.8,69.0,72.9,67.5,62.8,93,77,44,30.18,30.03,4,1,5,0.00
2013-10-14,86.7,74.7,66.7,66.6,61.1,54.9,87,65,39,30.15,30.00,4,1,7,0.00
2013-10-15,86.3,73.8,64.4,68.1,62.2,58.4,91,69,43,30.06,29.94,4,1,6,0.00
2013-10-16,81.8,72.7,67.2,71.2,65.5,63.1,89,79,57,30.03,29.91,5,1,7,0.00
2013-10-17,73.9,67.8,61.1,67.8,61.1,54.9,90,80,66,30.06,29.91,6,2,8,0.00
2013-10-18,74.8,64.4,55.7,58.2,52.8,47.9,83,68,43,30.09,29.94,4,1,8,0.00
2013-10-19,77.0,64.6,58.8,62.4,55.3,50.7,91,73,45,30.06,29.94,7,2,10,0.87
2013-10-20,78.8,62.7,53.0,52.9,48.7,45.1,77,62,36,30.09,29.91,4,1,7,0.00
2013-10-21,68.5,61.9,54.5,58.4,54.3,48.7,85,76,65,30.09,29.94,4,0,6,0.00
2013-10-22,81.6,67.1,59.3,61.4,56.6,51.9,89,71,42,30.03,29.94,5,1,12,0.00
2013-10-23,81.1,64.4,53.2,52.8,47.7,41.5,83,58,31,30.15,30.03,6,1,10,0.00
2013-10-24,84.2,64.6,50.1,50.9,46.2,42.3,79,55,29,30.24,30.12,4,1,6,0.00
2013-10-25,75.2,61.8,52.7,51.1,42.0,35.8,70,50,31,30.42,30.24,6,2,11,0.00
2013-10-26,77.5,60.3,46.5,47.7,40.0,32.1,68,48,31,30.33,30.18,4,1,6,0.00
2013-10-27,67.4,60.6,53.6,60.2,54.3,46.7,90,80,68,30.18,30.06,3,0,6,0.00
2013-10-28,84.7,69.0,59.7,63.3,59.5,56.7,92,74,44,30.21,30.06,4,1,6,0.00
2013-10-29,80.0,68.8,60.4,64.0,59.6,56.2,94,74,47,30.21,30.12,6,1,11,0.00
2013-10-30,76.1,68.9,63.3,66.4,62.5,60.4,95,81,61,30.21,30.03,6,1,9,0.00
2013-10-31,76.2,68.3,64.2,68.2,65.2,62.4,96,90,68,30.03,29.80,9,2,17,1.00
2013-11-1,80.2,64.8,59.1,63.1,57.7,50.4,94,80,39,29.94,29.85,6,1,7,0.00
2013-11-2,75.7,62.6,54.8,52.1,45.2,36.4,82,56,30,30.18,29.94,8,2,10,0.00
2013-11-3,70.1,56.3,45.8,41.8,38.0,34.9,69,52,33,30.27,30.12,5,1,6,0.00
2013-11-4,76.2,54.4,48.5,53.7,43.4,39.5,80,67,40,30.21,30.12,6,1,10,0.00
2013-11-5,72.6,64.9,60.4,60.5,56.6,50.7,89,75,60,30.21,30.12,7,2,11,0.00
2013-11-6,79.1,67.5,58.4,67.7,62.2,54.4,93,84,64,30.12,30.03,4,1,10,0.04
2013-11-7,68.3,58.6,49.1,62.6,43.4,32.3,90,60,34,30.36,30.12,9,4,14,0.00
2013-11-8,71.2,54.4,44.2,38.8,33.7,30.3,61,47,29,30.36,30.18,6,2,10,0.00
2013-11-9,76.1,59.2,46.2,50.5,42.5,34.3,67,55,38,30.27,30.15,4,1,6,0.00
2013-11-11,76.4,62.2,50.0,49.0,44.6,41.0,74,54,35,30.27,30.12,4,1,6,0.00
2013-11-12,72.3,56.8,40.6,48.4,42.9,23.4,74,61,41,30.53,30.18,10,3,16,0.00
2013-11-13,41.1,37.1,33.6,23.4,19.8,16.9,50,49,49,30.53,30.39,6,3,10,0.00
2013-11-14,67.1,50.1,36.6,45.3,31.2,18.3,72,49,38,30.44,30.15,5,1,11,0.00
2013-11-15,77.0,62.6,54.3,60.6,52.7,44.5,88,71,50,30.15,29.94,5,1,7,0.00
2013-11-16,77.5,67.1,60.2,65.5,61.6,57.4,96,84,61,30.06,29.91,6,2,10,0.00
2013-11-17,76.8,68.4,66.2,70.8,66.5,63.9,98,94,79,29.97,29.85,6,2,10,0.00
2013-11-18,70.5,70.2,70.1,69.0,68.7,68.6,95,95,94,30.00,29.94,3,1,3,0.00
2013-11-19,77.7,53.3,48.2,69.0,28.8,24.3,96,40,32,30.15,29.97,4,1,4,0.08
2013-11-20,72.5,56.1,42.2,51.6,35.5,24.4,86,48,31,30.12,30.00,3,1,6,0.00
2013-11-21,66.0,61.1,55.7,61.6,58.4,51.0,97,91,82,30.18,30.06,6,2,8,0.00
2013-11-22,69.9,63.7,61.5,65.4,61.2,59.2,97,92,74,30.27,30.12,8,2,11,0.00
2013-11-23,61.7,55.0,46.2,59.0,51.1,36.2,94,87,68,30.36,30.18,8,3,13,0.08
2013-11-24,57.5,46.2,37.9,37.1,25.7,19.8,70,46,28,30.42,30.30,8,3,12,0.00
2013-11-25,41.3,40.6,39.9,20.5,19.7,18.8,44,43,42,30.33,30.18,6,2,6,0.00
2013-11-29,63.3,44.8,28.9,31.4,25.6,19.7,70,50,25,30.53,30.42,4,1,6,1.16
2013-11-30,67.4,47.6,31.8,39.4,29.9,22.2,70,52,32,30.44,30.24,4,0,5,0.00
2013-12-1,69.6,53.2,38.8,46.7,38.5,30.5,79,59,37,30.50,30.03,4,1,6,0.00
2013-12-2,70.8,60.8,53.2,58.6,53.5,43.5,92,78,62,30.03,29.74,6,1,13,0.00
2013-12-3,76.4,65.9,59.5,65.4,60.8,55.7,98,85,50,29.83,29.71,9,2,13,0.00
2013-12-4,77.3,69.4,65.1,67.2,64.7,62.6,97,86,63,29.94,29.80,6,2,11,0.00
2013-12-5,80.2,71.3,67.1,69.4,67.0,63.5,96,87,60,30.03,29.88,6,2,10,0.05
2013-12-6,70.1,55.0,39.0,68.0,49.4,32.1,94,82,70,30.27,29.91,8,3,10,0.12
2013-12-7,40.2,37.7,35.0,34.3,30.5,26.9,83,75,69,30.36,30.24,8,3,14,0.00
2013-12-8,44.7,41.6,38.1,43.5,38.9,33.2,96,90,83,30.27,30.00,4,1,5,2.28
2013-12-9,50.9,46.8,42.2,49.2,44.8,38.6,96,93,86,30.18,30.06,6,2,10,0.13
2013-12-10,54.5,42.1,34.5,38.0,30.8,26.5,87,66,42,30.39,30.15,9,3,15,0.04
2013-12-11,50.3,42.7,33.9,39.8,32.0,25.4,73,66,56,30.44,30.30,4,1,6,0.00
2013-12-12,58.4,43.8,35.6,32.2,26.8,20.8,68,52,34,30.53,30.06,7,2,10,0.00
2013-12-13,57.7,46.3,34.3,50.3,33.0,17.1,87,60,48,30.36,29.91,5,2,11,0.00
2013-12-14,63.6,57.8,47.6,61.0,52.9,38.5,98,84,70,30.12,29.83,8,2,13,0.50
2013-12-15,57.7,46.2,37.4,38.7,31.1,26.8,71,56,39,30.33,30.12,8,3,11,0.00
2013-12-16,61.7,44.6,31.4,36.1,28.6,23.8,77,56,30,30.39,30.24,4,1,5,0.00
2013-12-17,65.8,47.3,33.2,41.2,31.5,25.3,81,57,33,30.36,30.24,4,0,6,0.00
2013-12-18,66.9,49.4,36.1,40.6,33.8,28.6,79,57,34,30.39,30.18,5,1,8,0.00
2013-12-19,69.0,59.7,44.6,55.3,49.2,35.0,88,69,49,30.48,30.00,6,1,10,0.00
2013-12-20,76.1,66.3,58.8,65.0,60.1,54.6,97,81,60,30.03,29.94,7,2,12,0.00
2013-12-21,74.8,69.1,62.2,66.8,64.2,56.6,96,85,67,29.94,29.71,11,3,17,0.12
2013-12-22,64.7,59.2,52.1,57.3,54.1,46.3,92,83,68,30.21,29.83,6,1,8,0.58
2013-12-23,53.7,44.3,35.6,46.3,31.2,22.0,81,61,43,30.50,30.15,8,4,13,0.00
2013-12-24,56.3,47.0,30.5,32.2,26.8,20.1,67,46,36,30.53,30.03,7,2,10,0.00
2013-12-25,49.2,39.7,30.0,29.9,22.2,16.2,67,50,38,30.42,30.30,5,1,8,0.00
2013-12-26,59.5,45.5,34.5,32.2,26.9,21.4,63,49,35,30.42,30.27,5,1,8,0.00
2013-12-27,54.3,46.9,41.0,32.6,28.7,26.1,61,50,40,30.42,30.27,6,2,8,0.00
2013-12-28,48.5,45.9,43.1,46.1,38.8,26.3,92,78,44,30.30,29.97,4,2,6,0.62
2013-12-29,64.0,50.5,43.7,43.6,38.7,32.9,92,67,37,30.15,29.97,5,1,8,0.00
2013-12-30,53.2,47.0,42.2,43.7,38.3,34.7,81,72,57,30.33,30.09,5,1,8,0.00
2013-12-31,45.1,42.1,38.4,37.8,33.0,29.6,79,70,60,30.42,30.30,4,2,9,0.00
2014-1-1,53.0,47.8,41.5,50.9,44.9,35.8,97,90,79,30.30,30.00,4,1,6,0.17
2014-1-2,56.8,52.7,46.9,52.1,43.8,21.6,98,76,37,30.42,29.94,10,3,19,0.04